Content
SEND FEEDBACK

Daily
Averages
Monthly
Summary
United States of America

VERNON, VERMONT


Home > North America > United States > Vermont
Elevation: 238 feet     Latitude: 42 46N     Longitude: 072 31W

WEATHER
 
SELECT A DAY
Number of Records: 452,701;   Date Range: 1/1/95 - 10/19/14
 
SHARE

PRINT THIS DATA

[ ← Previous Day ]
WEATHER ALMANAC - JANUARY 17, 2014
[ Next Day → ]
[ °C ]   °F
Weather ElementAverageHighLow
Temperature29.9 °F39.2 °F (2:15 pm) (5:35 am)
Dewpoint22.6 °F28.4 °F (1:35 am) (7:00 pm)
Humidity74 %87 % (1:35 am)49 % (2:35 pm)
Barometer29.91 in29.96 in (10:15 am)29.88 in (1:35 pm)
Wind Speed2.8 mph13.8 mph (1:55 pm)
Wind Gust18.4 mph (2:55 pm)
Weather ElementAverage
Visibility8.1 mi
Wind DirectionENE (75.4 °)

Weather ElementTotal
Precipitation0.01 in
Heating Degree Days45.4 (Base 65)
Averaged from 69 records on January 17, 2014
WEATHER CONDITIONS BREAKOUT
WIND DIRECTION BREAKOUT
WEATHER BY HOUR - JANUARY 17, 2014
[ °C ]   °F
Local TimeTemperatureDewpointHumidityBarometerVisibilityWind DirectionWind SpeedGust SpeedPrecipitationEventsConditions
12:35 AM32.0 °F26.6 °F80 %29.90 in2.5 miCalmOvercast
12:55 AM32.0 °F26.6 °F80 %29.91 in1.8 miCalm0.01 inOvercast
1:15 AM32.0 °F26.6 °F80 %29.90 in1.8 miCalmOvercast
1:35 AM32.0 °F28.4 °F87 %29.90 in1.8 miCalmOvercast
1:55 AM32.0 °F28.4 °F87 %29.90 in2.5 miCalmOvercast
2:15 AM32.0 °F28.4 °F87 %29.90 in2.5 miCalmOvercast
2:35 AM32.0 °F26.6 °F80 %29.90 in5.0 miCalmOvercast
2:55 AM32.0 °F26.6 °F80 %29.90 in3.0 miCalmOvercast
3:15 AM32.0 °F26.6 °F80 %29.89 in3.0 miCalmOvercast
3:35 AM32.0 °F26.6 °F80 %29.89 in2.0 miCalmOvercast
3:55 AM32.0 °F26.6 °F80 %29.90 in1.0 miCalmOvercast
4:15 AM32.0 °F28.4 °F87 %29.89 in1.5 miCalmOvercast
4:35 AM32.0 °F26.6 °F80 %29.90 in3.0 miCalmOvercast
4:55 AM32.0 °F26.6 °F80 %29.90 in2.0 miCalmOvercast
5:15 AM32.0 °F26.6 °F80 %29.90 in8.0 miCalmOvercast
5:35 AM0.0 °F0.0 °F29.90 in8.0 miCalmOvercast
5:55 AM0.0 °F0.0 °F29.90 in7.0 miCalmOvercast
6:15 AM0.0 °F0.0 °F29.91 in10.0 miSW (230°)6.9 mphOvercast
6:35 AM30.2 °F24.8 °F80 %29.92 in10.0 miSW (230°)5.8 mphOvercast
6:55 AM30.2 °F24.8 °F80 %29.92 in10.0 miSouth (190°)4.6 mphOvercast
7:15 AM30.2 °F24.8 °F80 %29.93 in10.0 miCalmOvercast
8:15 AM30.2 °F24.8 °F80 %29.94 in10.0 miCalmOvercast
8:35 AM30.2 °F24.8 °F80 %29.95 in10.0 miSouth (190°)6.9 mphOvercast
8:55 AM30.2 °F24.8 °F80 %29.95 in10.0 miSSW (200°)6.9 mphOvercast
9:15 AM30.2 °F23.0 °F75 %29.95 in10.0 miSW (220°)4.6 mphOvercast
9:35 AM30.2 °F24.8 °F80 %29.94 in10.0 miCalmOvercast
9:55 AM30.2 °F24.8 °F80 %29.95 in10.0 miCalmOvercast
10:15 AM32.0 °F24.8 °F75 %29.96 in10.0 miSW (230°)5.8 mphOvercast
10:35 AM33.8 °F24.8 °F70 %29.95 in10.0 miSouth (180°)5.8 mphMostly Cloudy
10:55 AM33.8 °F24.8 °F70 %29.94 in10.0 miSouth (180°)3.5 mphPartly Cloudy
11:15 AM33.8 °F24.8 °F70 %29.93 in10.0 miSouth (180°)5.8 mphMostly Cloudy
11:35 AM33.8 °F24.8 °F70 %29.92 in10.0 miSSW (200°)4.6 mphMostly Cloudy
11:55 AM35.6 °F24.8 °F65 %29.91 in10.0 miSW (230°)9.2 mphPartly Cloudy
12:15 PM35.6 °F24.8 °F65 %29.91 in10.0 miSW (220°)8.1 mphScattered Clouds
12:35 PM35.6 °F23.0 °F60 %29.90 in10.0 miSW (220°)9.2 mphMostly Cloudy
12:55 PM35.6 °F24.8 °F65 %29.90 in10.0 miWSW (240°)6.9 mphOvercast
1:15 PM37.4 °F24.8 °F60 %29.89 in10.0 miSSW (210°)10.4 mph16.1 mphOvercast
1:35 PM37.4 °F24.8 °F60 %29.88 in10.0 miSSW (210°)12.7 mph16.1 mphMostly Cloudy
1:55 PM37.4 °F21.2 °F52 %29.89 in10.0 miSouth (190°)13.8 mphMostly Cloudy
2:15 PM39.2 °F24.8 °F56 %29.89 in10.0 miSSW (200°)13.8 mphMostly Cloudy
2:35 PM39.2 °F21.2 °F49 %29.89 in10.0 miSSW (210°)11.5 mph16.1 mphPartly Cloudy
2:55 PM39.2 °F23.0 °F52 %29.89 in10.0 miSSW (210°)13.8 mph18.4 mphClear
3:15 PM0.0 °F0.0 °F29.89 in10.0 miSW (220°)8.1 mphClear
3:35 PM39.2 °F23.0 °F52 %29.89 in10.0 miSSW (200°)6.9 mphClear
3:55 PM39.2 °F21.2 °F49 %29.90 in10.0 miSSW (200°)4.6 mphClear
4:15 PM37.4 °F21.2 °F52 %29.91 in10.0 miSSW (210°)5.8 mphClear
4:35 PM35.6 °F23.0 °F60 %29.91 in10.0 miCalmClear
4:55 PM33.8 °F23.0 °F65 %29.91 in10.0 miCalmClear
5:15 PM32.0 °F24.8 °F75 %29.91 in10.0 miCalmClear
5:35 PM30.2 °F23.0 °F75 %29.92 in10.0 miCalmClear
5:55 PM30.2 °F23.0 °F75 %29.92 in10.0 miCalmClear
6:15 PM28.4 °F23.0 °F80 %29.91 in10.0 miCalmClear
6:35 PM28.4 °F23.0 °F80 %29.92 in10.0 miCalmClear
6:55 PM28.4 °F23.0 °F80 %29.92 in10.0 miCalmClear
7:15 PM28.4 °F21.2 °F74 %29.92 in10.0 miCalmClear
7:35 PM28.4 °F21.2 °F74 %29.92 in10.0 miCalmClear
7:55 PM28.4 °F21.2 °F74 %29.93 in10.0 miCalmClear
8:15 PM26.6 °F21.2 °F80 %29.93 in10.0 miCalmClear
8:35 PM26.6 °F21.2 °F80 %29.93 in10.0 miCalmClear
8:55 PM26.6 °F21.2 °F80 %29.92 in10.0 miCalmClear
9:15 PM26.6 °F21.2 °F80 %29.93 in10.0 miCalmClear
9:35 PM26.6 °F21.2 °F80 %29.92 in10.0 miCalmClear
9:55 PM26.6 °F21.2 °F80 %29.92 in10.0 miCalmClear
10:15 PM26.6 °F21.2 °F80 %29.92 in10.0 miCalmClear
10:35 PM26.6 °F21.2 °F80 %29.92 in9.0 miCalmClear
10:55 PM28.4 °F21.2 °F74 %29.93 in8.0 miCalmClear
11:15 PM26.6 °F23.0 °F86 %29.92 in7.0 miCalmClear
11:35 PM26.6 °F21.2 °F80 %29.91 in5.0 miCalmClear
11:55 PM26.6 °F21.2 °F80 %29.91 in5.0 miCalmClear
Hourly data recorded from KEEN, located miles away from Vernon, Vermont







STORIES FROM OUR PARTNERS